[[{"header":{"parameterUnit":"m.s-1","parameterCategory":1,"la1":30.2991,"la2":30.254,"lo1":-89.0895,"lo2":-89.0444,"dy":0.0017,"dx":0.0017,"nx":28,"ny":28,"refTime":"2024-06-06T03:00:00:Z","depth":0,"parameterNumber":2,"parameterNumberName":"U-component_of_WINDS"},"data":[0,0,0,0,0,0,0,0,0,0,0,0,0,0,0,0,0,0,0,0,0,0,0,0,0,0,0,0,0,0,0,0,0,0,0,0,0,0,0,0,0,0,0,0,0,0,0,0,0,0,0,0,0,0,0,0,0,0,0.9072,0.9073,0,0.9206,0.9208,0.9209,0.9257,0.9256,0.9256,0.9255,0.9396,0.94,0.9404,0,0,0,0,0,0,0,0,0,0,0,0,0,0.8856,0.886,0.9071,0.9073,0.9075,0.9206,0.9208,0.921,0.9257,0.9256,0.9256,0.9255,0.9395,0.94,0.9405,0,0,0,0,0,0,0,0,0,0,0,0,0,0.8966,0.8861,0.9071,0.9114,0.9119,0.9206,0.9208,0.921,0.9257,0.9256,0.9256,0.9255,0.9393,0.9399,0.9405,0.946,0,0,0.9425,0.9428,0,0,0,0,0,0,0,0,0.896,0.8974,0.9106,0.9111,0.9117,0.9214,0.9184,0.9294,0.9257,0.9205,0.9255,0.9254,0.9336,0.9347,0.9374,0.9466,0.9472,0.9425,0.9429,0.9432,0.9434,0,0,0,0,0,0,0,0.8952,0.8969,0.9125,0.9108,0.9115,0.9127,0.9142,0.9205,0.9273,0.9209,0.9213,0.9228,0.9339,0.9368,0.9378,0.9474,0.9425,0.9431,0.9435,0.9437,0.9617,0.9618,0,0,0,0,0,0,0.8937,0.8962,0.9121,0.9129,0.9035,0.9132,0.9148,0.9184,0.9273,0.9285,0.9229,0.923,0.9358,0.937,0.9383,0.9452,0.9432,0.9438,0.9441,0.9616,0.9617,0.9618,0,0,0,0,0,0,0.8933,0.8951,0.9115,0.9047,0.9068,0.9136,0.9176,0.9187,0.9216,0.9287,0.93,0.9246,0.9357,0.9374,0.944,0.9458,0.9441,0.9446,0.9615,0.9616,0.9617,0.959,0,0,0,0,0,0,0.8926,0.8949,0.897,0.9047,0.9072,0.9169,0.9177,0.919,0.9226,0.9229,0.9306,0.9319,0.9358,0.943,0.9446,0.9466,0.9451,0.9613,0.9615,0.9617,0.959,0.9591,0.9591,0,0,0,0,0,0.8918,0.8958,0.8971,0.899,0.9099,0.917,0.9185,0.9229,0.9227,0.9249,0.9295,0.9316,0.9453,0.9436,0.9455,0.9477,0.9612,0.9615,0.9617,0.959,0.9591,0.9591,0,0,0,0,0,0,0.8883,0.8969,0.8984,0.905,0.9102,0.9178,0.9207,0.9228,0.9283,0.9284,0.9336,0.9354,0.9415,0.9453,0.9433,0.9534,0.9534,0.954,0.9507,0.9508,0.9509,0.9499,0.9457,0,0,0,0,0,0.8883,0.8932,0.9005,0.9056,0.9081,0.9139,0.9172,0.9201,0.9258,0.928,0.9331,0.9386,0.9441,0.9477,0.9532,0.9595,0.9613,0.9619,0.962,0.962,0.9625,0.9661,0.9664,0.9625,0.9625,0.9625,0,0,0.8883,0.8936,0.8964,0.905,0.9094,0.9144,0.9158,0.9211,0.9249,0.9289,0.9354,0.9392,0.9457,0.9522,0.9553,0.9555,0.9639,0.9623,0.9623,0.9628,0.9663,0.9667,0.967,0.9627,0.9626,0.9626,0,0,0.8909,0.8954,0.9001,0.9044,0.911,0.9149,0.916,0.9232,0.9259,0.9325,0.9355,0.9401,0.9496,0.954,0.9575,0.9616,0.9638,0.9633,0.9637,0.9671,0.9674,0.9677,0.9691,0.9696,0.9637,0.9637,0.9637,0,0.8902,0.8978,0.9023,0.9074,0.9111,0.9147,0.9195,0.9235,0.9316,0.9341,0.9341,0.9459,0.9506,0.9581,0.9591,0.9618,0.9632,0.9625,0.967,0.9673,0.9677,0.9691,0.9696,0.9636,0.9636,0.9636,0.9636,0,0.8965,0.9018,0.9048,0.9124,0.9164,0.9213,0.9265,0.93,0.9325,0.9363,0.9429,0.9485,0.9552,0.9572,0.9597,0.965,0.9649,0.9659,0.9661,0.9679,0.9693,0.9699,0.9634,0.9635,0.9635,0.9635,0,0,0.8975,0.9073,0.9084,0.9118,0.9192,0.9234,0.9285,0.9349,0.9378,0.9432,0.9476,0.9553,0.9562,0.9602,0.9633,0.9662,0.9691,0.9669,0.9671,0.9671,0.9752,0.9745,0.975,0.9705,0.9706,0.9707,0.9747,0,0.9011,0.9103,0.9143,0.9217,0.9266,0.93,0.9344,0.9395,0.9431,0.9478,0.9519,0.9573,0.9581,0.9605,0.9636,0.9681,0.9708,0.9678,0.9747,0.9749,0.973,0.9758,0.9751,0.9786,0.9753,0.9754,0.9754,0,0.9066,0.9119,0.9197,0.9264,0.9286,0.9325,0.9386,0.9431,0.9489,0.9513,0.9556,0.9585,0.9639,0.9636,0.9712,0.9691,0.9721,0.9747,0.9749,0.9758,0.9753,0.9768,0.9798,0.9803,0.9764,0.9763,0.9762,0,0.9065,0.9156,0.9214,0.9242,0.9323,0.9349,0.9384,0.9441,0.9476,0.9529,0.9553,0.9612,0.9645,0.969,0.9734,0.9728,0.9806,0.9806,0.9828,0.9826,0.9844,0.9842,0.9879,0.9862,0.9862,0.9862,0.9861,0,0.9102,0.9148,0.9214,0.925,0.9303,0.9349,0.94,0.9437,0.9487,0.9531,0.9564,0.9604,0.966,0.9707,0.9742,0.9799,0.9814,0.9835,0.9844,0.9833,0.983,0.9854,0.9853,0.9863,0.9863,0.9862,0.9862,0,0.9111,0.9157,0.9222,0.9292,0.9311,0.9346,0.9406,0.9442,0.9479,0.9534,0.955,0.9609,0.9666,0.9714,0.979,0.9813,0.9872,0.9883,0.9853,0.9857,0.9876,0.9874,0.9931,0.994,0.9916,0.9916,0.9916,0,0.9131,0.9167,0.9241,0.9272,0.9306,0.9356,0.9391,0.9437,0.9473,0.9541,0.9569,0.9628,0.9678,0.9768,0.9818,0.9876,0.9888,0.9903,0.9897,0.9884,0.9888,0.9886,0.9889,0.9904,0.9904,0.9904,0.9904,0,0.9163,0.9183,0.9233,0.9291,0.9332,0.938,0.9429,0.9452,0.9507,0.9546,0.9604,0.9643,0.9719,0.9778,0.984,0.9877,0.99,0.9906,0.9914,0.9903,0.9884,0.9894,0.9854,0.9905,0.9905,0.9904,0.9904,0.9904,0.9178,0.9212,0.9268,0.9322,0.9363,0.9408,0.9444,0.9485,0.9535,0.96,0.9624,0.9684,0.9739,0.9826,0.9862,0.9909,0.9913,0.9924,0.9927,0.993,0.9928,0.9875,0.9921,0.9921,0.9921,0.9921,0.9921,0,0.9212,0.9249,0.9298,0.9365,0.9407,0.9424,0.9478,0.9512,0.9564,0.9614,0.9662,0.9728,0.9785,0.9838,0.9897,0.9925,0.9937,0.9939,0.9938,0.9945,0.9922,0.9909,0.9928,0.9928,0.9928,0.9928,0.9928,0.9928,0.9234,0.9291,0.9318,0.9396,0.9433,0.9491,0.9521,0.9562,0.9601,0.9674,0.972,0.9754,0.9805,0.9868,0.9921,0.9935,0.9955,0.9954,0.9971,0.9949,0.9947,0.9946,0.9934,0.9958,0.9958,0.9991,0.9991,0.9992]},{"header":{"parameterUnit":"m.s-1","parameterCategory":1,"la1":30.2991,"la2":30.254,"lo1":-89.0895,"lo2":-89.0444,"dy":0.0017,"dx":0.0017,"nx":28,"ny":28,"refTime":"2024-06-06T03:00:00:Z","depth":0,"parameterNumber":3,"parameterNumberName":"V-component_of_WINDS"},"data":[0,0,0,0,0,0,0,0,0,0,0,0,0,0,0,0,0,0,0,0,0,0,0,0,0,0,0,0,0,0,0,0,0,0,0,0,0,0,0,0,0,0,0,0,0,0,0,0,0,0,0,0,0,0,0,0,0,0,2.5138,2.5138,0,2.5141,2.5141,2.5141,2.5175,2.5176,2.5177,2.5178,2.5178,2.5177,2.5176,0,0,0,0,0,0,0,0,0,0,0,0,0,2.5159,2.5159,2.5138,2.5138,2.5138,2.5141,2.5141,2.5141,2.5175,2.5176,2.5177,2.5178,2.5178,2.5177,2.5176,0,0,0,0,0,0,0,0,0,0,0,0,0,2.5155,2.5159,2.5138,2.5156,2.5157,2.5141,2.5141,2.5141,2.5175,2.5176,2.5178,2.5179,2.5178,2.5177,2.5176,2.5142,0,0,2.5172,2.5172,0,0,0,0,0,0,0,0,2.5155,2.5154,2.5153,2.5154,2.5156,2.5159,2.5148,2.5141,2.5175,2.5168,2.5178,2.518,2.517,2.517,2.5167,2.5142,2.5142,2.5172,2.5171,2.5171,2.5171,0,0,0,0,0,0,0,2.5155,2.5154,2.5139,2.5153,2.5155,2.5162,2.5163,2.5147,2.5162,2.5169,2.5171,2.5171,2.5171,2.5168,2.5168,2.5142,2.5172,2.5171,2.517,2.517,2.5086,2.5084,0,0,0,0,0,0,2.5154,2.5154,2.5139,2.5139,2.5159,2.5161,2.5162,2.5157,2.5162,2.5164,2.517,2.5173,2.517,2.5169,2.5168,2.5126,2.5171,2.517,2.5169,2.5087,2.5085,2.5084,0,0,0,0,0,0,2.5154,2.5152,2.5139,2.5147,2.5146,2.5159,2.5153,2.5156,2.5153,2.5163,2.5166,2.5165,2.5171,2.5169,2.5148,2.5127,2.5169,2.5168,2.5089,2.5087,2.5084,2.5044,0,0,0,0,0,0,2.5154,2.5152,2.514,2.5147,2.5146,2.512,2.5152,2.5155,2.5151,2.5155,2.5159,2.516,2.5172,2.5149,2.5146,2.5126,2.5167,2.5091,2.5088,2.5085,2.5047,2.504,2.5035,0,0,0,0,0,2.5155,2.5128,2.5139,2.5137,2.5131,2.5118,2.5118,2.5132,2.515,2.5137,2.5143,2.516,2.513,2.5147,2.5144,2.5122,2.5092,2.5089,2.5085,2.505,2.5042,2.5035,0,0,0,0,0,0,2.5118,2.5129,2.5142,2.5117,2.5116,2.5124,2.5109,2.5124,2.5118,2.5121,2.5139,2.5139,2.5114,2.5116,2.5135,2.5088,2.5114,2.511,2.5088,2.508,2.5074,2.5073,2.5166,0,0,0,0,0,2.5107,2.5097,2.5107,2.5084,2.5083,2.5096,2.5091,2.5102,2.5102,2.5102,2.5107,2.5105,2.5095,2.5088,2.5079,2.5048,2.5048,2.5031,2.5025,2.502,2.5016,2.4997,2.4989,2.5073,2.5073,2.5073,0,0,2.5084,2.5089,2.5081,2.5076,2.5078,2.5065,2.5096,2.5082,2.5072,2.51,2.5079,2.5082,2.5081,2.5054,2.5042,2.5055,2.4993,2.5016,2.5012,2.501,2.4992,2.4984,2.4977,2.507,2.5071,2.5071,0,0,2.5035,2.5039,2.5019,2.5019,2.5021,2.5029,2.5024,2.503,2.5033,2.5013,2.5033,2.5021,2.5004,2.5002,2.4999,2.4948,2.4962,2.4944,2.4912,2.4893,2.4886,2.488,2.486,2.4852,2.494,2.494,2.494,0,2.5005,2.4989,2.5006,2.499,2.4987,2.5012,2.4991,2.499,2.4988,2.4984,2.4999,2.4977,2.4979,2.495,2.4937,2.4934,2.4927,2.4943,2.4886,2.488,2.4875,2.4855,2.4848,2.4938,2.4938,2.4938,2.4939,0,2.4951,2.4939,2.4923,2.4921,2.4915,2.4897,2.491,2.4902,2.4914,2.492,2.4898,2.4901,2.4892,2.4886,2.4897,2.4858,2.4866,2.4883,2.4909,2.4864,2.4846,2.4839,2.4934,2.4935,2.4936,2.4937,0,0,2.4879,2.4886,2.488,2.4878,2.4881,2.4871,2.4853,2.4846,2.4837,2.4835,2.4819,2.4803,2.4819,2.4815,2.4826,2.4809,2.4766,2.4828,2.4829,2.4815,2.472,2.4705,2.4696,2.4776,2.4775,2.4774,2.4719,0,2.483,2.48,2.4815,2.4783,2.4771,2.4794,2.4778,2.4777,2.4782,2.4771,2.4777,2.4765,2.4787,2.4785,2.477,2.4774,2.4746,2.4779,2.4759,2.4758,2.4756,2.4687,2.4673,2.4621,2.4712,2.4711,2.471,0,2.4769,2.4764,2.4731,2.4735,2.473,2.4715,2.4708,2.4699,2.4697,2.4702,2.4697,2.4711,2.4692,2.4718,2.469,2.4712,2.4705,2.4705,2.4704,2.4701,2.473,2.4681,2.4605,2.4596,2.47,2.4701,2.4701,0,2.4716,2.4702,2.468,2.4678,2.4682,2.4671,2.4672,2.4672,2.4666,2.466,2.4655,2.4646,2.4641,2.4633,2.4643,2.4662,2.4613,2.4641,2.4614,2.4613,2.4601,2.4602,2.4521,2.46,2.46,2.46,2.46,0,2.4659,2.4637,2.4656,2.4642,2.4617,2.4634,2.4609,2.4612,2.4612,2.4598,2.4618,2.4603,2.4619,2.4606,2.4614,2.4588,2.4586,2.4588,2.459,2.4585,2.4584,2.4579,2.4582,2.4598,2.4599,2.4599,2.4599,0,2.4596,2.4608,2.4585,2.4591,2.4592,2.4573,2.4577,2.4564,2.457,2.4552,2.4548,2.4558,2.4543,2.4553,2.4538,2.4544,2.4509,2.4517,2.4509,2.4511,2.4483,2.4484,2.4394,2.4382,2.4471,2.447,2.4469,0,2.4558,2.4542,2.4546,2.4538,2.4538,2.4526,2.4519,2.4534,2.4527,2.4523,2.4509,2.4496,2.4487,2.4461,2.4466,2.4454,2.4461,2.443,2.4459,2.4454,2.4457,2.4457,2.4455,2.4423,2.4422,2.4422,2.4421,0,2.4488,2.4495,2.4486,2.4478,2.447,2.4464,2.446,2.4452,2.4467,2.4457,2.4443,2.4435,2.442,2.4405,2.4395,2.4395,2.4409,2.4412,2.4405,2.4399,2.4394,2.4394,2.4491,2.4414,2.4414,2.4415,2.4415,2.4416,2.4435,2.4421,2.4421,2.441,2.4408,2.4403,2.439,2.4395,2.4384,2.4373,2.4382,2.4364,2.4361,2.4349,2.4346,2.4331,2.4343,2.4333,2.433,2.4327,2.4322,2.4398,2.4329,2.4329,2.433,2.433,2.433,0,2.4364,2.4366,2.4355,2.4349,2.4339,2.4355,2.4351,2.4341,2.4325,2.4322,2.4312,2.4294,2.428,2.4283,2.427,2.4257,2.4263,2.4253,2.4253,2.4252,2.4313,2.432,2.4248,2.4248,2.4248,2.4248,2.4248,2.4248,2.4327,2.4303,2.4309,2.4284,2.4285,2.4268,2.4264,2.4259,2.4256,2.4235,2.4224,2.4227,2.4225,2.4212,2.4199,2.42,2.4193,2.418,2.4183,2.424,2.4248,2.4255,2.4262,2.4179,2.4179,2.4123,2.4122,2.4122]}]]